Regional Weather Roundup
Issued by NWS

Home | Current Version | Previous Version | Text Only | Print | Product List | Glossary Off
Versions: 1 2 3 4 5 6 7 8 9 10 11 12 13 14 15 16 17 18 19 20 21 22 23 24 25 26 27

000
ASUS45 KBOI 180210
RWRID
WEATHER ROUNDUP FOR IDAHO
NATIONAL WEATHER SERVICE BOISE ID
800 PM MDT THU APR 17 2014

NOTE: "FAIR" INDICATES FEW OR NO CLOUDS BELOW 12000 FEET
WITH NO SIGNIFICANT WEATHER AND/OR OBSTRUCTIONS TO VISIBILITY

IDZ012-014-180300-
SOUTHWEST IDAHO


CITY           SKY/WX    TMP DP  RH WIND       PRES   REMARKS
BOISE          CLOUDY    73  32  22 SW8       29.65R
CALDWELL       CLOUDY    72  36  26 W14       29.65S
MOUNTAIN HOME  CLOUDY    70  32  24 E16       29.64S
$$

IDZ016-017-180300-
SOUTHCENTRAL IDAHO


CITY           SKY/WX    TMP DP  RH WIND       PRES   REMARKS
BURLEY         PTCLDY    65  30  27 S10       29.73F
JEROME         PTCLDY    63  35  35 NE14      29.72F
TWIN FALLS     MOCLDY    67  36  31 NE3       29.72F
$$

IDZ019>023-180300-
SOUTHEAST IDAHO


CITY           SKY/WX    TMP DP  RH WIND       PRES   REMARKS
IDAHO FALLS    PTCLDY    62  25  24 S12       29.84F
POCATELLO      PTCLDY    62  25  24 S17       29.82F
REXBURG        MOCLDY    59  23  25 SW7       29.84F
$$

IDZ006-010-011-018-031-032-180300-
CENTRAL IDAHO MOUNTAINS


CITY           SKY/WX    TMP DP  RH WIND       PRES   REMARKS
MCCALL         CLOUDY    56  32  40 SW5       29.70F
HAILEY         PTCLDY    55  30  38 S6        29.81F
STANLEY          N/A     48  27  44 S8        29.81F
SALMON         CLOUDY    57  30  35 N3        29.69F
CHALLIS        CLOUDY    62  25  24 S9        29.73F
$$

IDZ002-004-006-007-026-180300-
NORTHERN IDAHO


CITY           SKY/WX    TMP DP  RH WIND       PRES   REMARKS
LEWISTON       LGT RAIN  52  46  80 NW3       29.79S
LOWELL           N/A     54  47  77 CALM      29.72F
COEUR D`ALENE  CLOUDY    48  45  87 S3        29.76F
MULLAN PASS    SNOW      33  32  96 VRB5      29.75F VSB 1/4 WCI  29
$$



USA.gov is the U.S. government's official web portal to all federal, state and local government web resources and services.